Helicity
168 177 212 154 140 186 120 138 118 94 124 142 179 161 17 78 84 103 92 182 350 455 485 483 376 371 362 318 387 426 417 374 354 342 321 266 257 209 169 160 137 115 116 122
208 151 152 125 158 149 118 123 108 64 60 154 190 185 131 67 120 134 131 175 407 532 530 451 397 342 261 256 309 379 375 332 276 263 222 210 202 205 219 166 134 111 125 133
228 187 97 155 163 163 131 131 120 109 66 115 162 198 221 179 131 73 138 203 393 515 552 438 385 299 255 255 262 273 258 239 209 222 272 276 293 289 222 163 146 128 123 114
162 120 196 131 157 176 145 141 102 145 156 108 148 196 187 169 160 99 98 263 457 500 534 434 357 291 276 277 242 203 187 177 178 186 173 175 178 157 140 148 135 130 106 98
263 118 168 161 161 152 225 138 161 173 177 162 140 196 191 182 166 143 115 235 394 564 526 397 330 301 273 258 223 184 155 150 143 123 127 185 160 162 163 154 143 115 86 73
197 169 156 248 153 148 164 237 265 235 204 186 195 200 38 294 182 157 163 303 496 481 424 384 383 351 253 218 177 150 133 111 89 105 123 128 122 135 142 142 136 96 81 68
206 160 203 191 263 148 234 320 329 309 320 246 187 240 186 212 132 136 176 287 413 442 441 459 416 271 254 206 155 127 105 95 91 97 101 90 101 114 124 136 123 103 92 68
345 303 199 235 237 362 287 347 529 471 412 265 293 303 215 136 130 145 180 290 397 489 458 379 284 247 272 231 159 122 94 82 76 77 71 59 100 113 118 113 110 88 72 49
283 234 205 275 296 232 404 364 355 392 344 308 248 255 232 201 146 163 245 403 432 469 451 373 272 289 289 234 147 111 85 58 57 47 47 65 108 134 106 101 109 84 75 72
417 332 315 171 342 229 289 448 443 406 301 257 241 231 293 354 265 215 301 377 416 457 429 337 298 310 293 216 156 107 64 42 51 36 63 84 123 106 103 138 131 120 91 118
447 325 293 341 336 416 567 389 392 323 435 388 344 257 249 248 196 200 222 342 436 420 409 366 299 276 279 227 156 62 39 56 44 46 81 92 134 150 117 135 142 133 149 134
304 370 333 232 172 298 382 459 479 520 544 414 443 258 233 133 143 126 162 264 347 376 449 372 274 252 269 243 169 75 66 48 41 67 105 121 141 171 157 162 176 190 188 184
394 497 450 468 336 327 298 352 385 505 435 332 414 299 267 251 172 153 220 329 383 439 442 314 258 243 262 230 168 132 100 86 86 143 191 194 182 185 200 205 207 218 216 203
316 408 422 433 438 608 497 374 309 368 455 551 399 454 446 375 284 220 253 286 328 347 300 278 260 251 241 221 186 161 153 169 169 222 258 278 251 254 274 294 319 328 342 373
200 282 303 236 314 261 277 399 364 392 369 458 376 430 459 343 227 194 196 201 219 220 260 252 271 259 270 270 222 169 205 242 307 320 348 339 412 476 504 476 450 440 388 328
189 292 231 213 296 258 340 326 249 288 298 226 374 384 337 195 221 228 199 159 191 216 200 217 246 306 346 299 294 288 276 318 383 447 529 587 615 657 635 516 427 406 381 336
174 204 301 138 190 215 231 177 415 348 252 287 304 344 349 291 219 183 202 157 167 171 204 241 260 309 341 378 437 461 486 572 611 743 763 759 716 613 497 380 345 277 288 251
174 212 301 240 270 248 161 192 130 237 247 241 253 287 318 249 163 153 109 137 170 183 177 178 240 366 444 589 689 763 714 707 857 893 813 707 547 401 323 293 285 198 276 248
241 191 279 374 352 290 135 186 199 234 39 217 207 239 224 133 257 220 151 89 130 162 196 244 391 479 551 631 720 848 855 988 821 806 666 533 488 516 267 231 225 226 208 156
22 136 259 259 294 277 44 215 198 196 118 294 266 186 240 282 319 226 212 200 227 259 302 358 451 556 611 662 785 912 885 714 664 693 537 349 221 180 201 156 172 147 151 180
53 72 193 281 194 278 255 180 249 248 156 298 224 198 213 262 204 219 212 320 300 270 280 327 371 456 539 601 676 695 655 587 477 417 372 332 267 252 281 262 226 189 172 166
214 280 250 254 216 230 92 240 263 277 259 221 289 355 245 235 242 242 228 254 231 222 261 285 339 418 468 491 527 480 481 429 416 424 393 376 356 304 272 237 191 173 170 166
293 445 454 318 312 416 347 308 409 361 347 204 302 263 119 165 171 174 211 219 185 198 213 184 273 402 383 350 354 367 342 330 360 346 322 304 286 249 214 212 214 211 182 165
128 10 88 124 145 161 190 119 311 273 271 203 190 79 99 134 155 191 216 193 192 147 202 266 327 360 350 287 295 300 287 288 276 266 266 251 232 210 191 174 160 172 171 166
227 129 108 121 121 229 233 181 151 239 344 314 188 191 197 224 176 165 134 88 118 202 244 248 253 246 249 245 241 206 218 219 219 213 210 196 185 187 181 205 182 164 110 145
290 251 274 172 276 354 222 256 358 307 241 170 216 206 211 175 169 140 131 138 187 207 214 214 208 210 185 169 173 160 142 147 177 220 206 199 193 213 233 234 234 216 150 79
Wind_Speed
57 69 73 57 51 54 54 54 56 54 47 47 41 37 28 26 21 20 23 27 21 19 20 22 25 25 20 12 2 11 10 6 6 6 7 9 9 10 12 15 18 19 20 23
71 94 70 60 60 63 68 70 68 68 61 48 47 48 43 38 29 25 29 34 21 21 19 20 23 21 17 8 1 5 7 6 1 2 5 10 7 11 12 16 17 17 20 24
84 77 62 66 69 70 73 72 67 62 53 54 58 69 56 43 33 35 39 31 23 21 17 15 17 17 14 7 2 5 6 4 2 3 7 10 14 13 14 12 15 19 21 24
89 90 71 67 80 62 76 57 59 63 60 72 48 71 62 45 42 41 38 32 25 21 17 14 13 14 14 9 4 3 4 4 2 2 3 6 6 5 10 11 15 17 20 22
93 72 72 81 72 57 70 51 55 56 60 68 65 66 62 47 53 45 44 36 26 23 17 15 13 14 14 8 5 6 5 5 1 3 1 2 4 11 11 13 13 14 18 19
94 68 70 84 73 59 56 50 52 55 59 73 60 57 63 49 46 54 49 32 21 16 15 14 14 15 14 9 6 5 4 3 1 0 2 1 2 7 11 12 11 15 17 15
83 100 74 63 67 70 58 54 63 66 65 71 49 57 64 48 34 41 38 28 17 15 17 14 12 10 7 4 4 4 4 3 2 1 0 1 5 7 9 7 13 14 16 18
94 98 89 72 75 65 67 59 66 70 75 80 58 68 60 44 42 36 28 23 18 20 21 19 14 9 6 6 6 6 6 4 3 4 3 3 6 8 9 8 11 14 16 15
90 100 69 82 66 61 63 69 58 65 64 71 62 67 65 44 38 40 35 29 27 27 26 21 14 11 10 9 10 9 9 8 8 10 5 4 7 8 8 11 12 15 16 18
80 96 77 71 64 69 75 58 65 65 76 80 73 70 66 50 48 41 35 33 31 30 26 21 16 14 13 12 11 10 11 11 11 9 7 7 9 10 12 15 15 20 22 21
80 79 76 63 80 75 66 70 67 65 72 78 86 84 65 59 51 39 32 29 31 31 28 22 18 15 14 13 13 14 12 10 11 11 8 9 9 11 15 20 23 27 27 26
96 80 92 85 75 76 74 75 72 81 80 81 85 87 54 49 37 31 32 29 31 29 26 23 18 15 15 16 16 16 13 12 12 11 11 11 12 15 21 25 25 27 32 31
94 97 98 91 87 84 89 81 78 74 68 80 75 81 51 51 43 40 47 39 34 32 27 24 21 19 19 19 20 19 18 17 15 15 15 17 19 20 24 28 29 31 32 31
86 104 114 115 97 80 86 84 78 74 86 78 80 77 60 57 62 59 46 36 33 34 32 30 28 24 22 23 21 20 20 19 19 17 20 21 24 25 26 26 28 30 32 34
83 105 108 125 100 78 90 93 89 91 88 82 82 81 69 61 55 50 38 31 31 32 32 31 28 25 25 25 24 23 21 19 15 17 19 23 27 27 25 24 25 27 31 35
89 96 98 122 102 110 99 93 93 95 89 89 85 81 59 50 53 45 33 31 33 34 34 33 29 27 27 29 29 27 25 24 21 21 23 27 27 25 25 25 26 26 32 37
85 95 83 116 95 92 114 113 95 88 87 84 84 73 57 55 52 44 37 34 38 38 36 36 36 37 34 34 31 28 24 19 18 18 18 21 24 27 30 30 33 38 44 41
70 83 84 96 76 109 109 89 97 98 90 81 82 71 59 56 51 54 52 46 41 38 38 35 36 42 41 33 28 22 15 14 13 16 19 20 22 27 28 31 37 42 46 45
77 73 76 90 93 78 94 76 67 74 89 82 76 70 62 55 54 57 50 42 34 34 35 35 34 31 25 22 13 12 10 10 13 17 16 17 20 27 33 50 44 44 45 47
72 77 84 69 85 95 87 62 53 55 93 61 59 59 54 43 52 45 33 30 31 32 29 27 20 13 11 6 8 11 12 15 18 16 17 20 29 41 46 41 43 44 46 47
68 70 82 78 79 82 68 55 35 59 69 46 45 41 39 47 47 32 28 22 21 20 18 16 7 4 5 8 7 7 10 14 19 22 29 36 35 34 35 39 39 41 42 43
66 68 71 70 82 88 54 51 57 47 31 29 34 37 33 27 19 20 20 19 20 21 19 9 1 5 2 2 4 6 14 21 28 35 30 32 33 34 33 33 36 37 39 44
73 67 64 64 62 50 48 55 39 37 35 32 35 23 18 18 19 19 20 18 16 14 10 3 3 3 5 6 9 13 19 20 23 24 26 28 27 28 31 32 35 39 41 44
86 72 77 71 83 61 44 54 51 43 36 25 19 18 21 23 23 22 18 15 15 11 7 1 2 6 8 11 13 14 13 15 17 20 22 23 26 28 30 32 33 38 41 46
73 58 70 76 57 44 41 48 43 32 27 27 18 23 24 25 26 21 18 16 16 13 4 2 3 7 10 11 11 8 9 10 15 18 21 24 26 29 31 34 37 40 44 44
68 71 74 86 55 48 51 42 33 32 29 25 21 27 28 26 22 20 22 17 16 14 5 4 4 6 5 8 9 8 8 9 13 19 24 25 25 28 30 34 42 45 43 43
Wind_Direction
258 255 252 253 256 266 270 272 275 278 284 294 276 273 271 292 287 288 293 302 296 302 326 343 343 348 355 351 159 172 167 147 113 67 38 36 37 47 35 17 8 12 13 13
255 252 256 260 262 262 265 269 273 277 281 288 287 282 282 285 279 281 293 300 283 294 309 325 332 344 354 358 314 186 181 163 156 12 20 356 41 13 8 2 8 15 13 9
249 259 257 257 259 260 263 266 271 275 282 288 287 284 285 291 284 290 297 295 280 272 282 298 315 339 353 341 229 186 179 184 265 342 2 8 360 3 356 4 3 1 3 5
254 253 257 256 256 256 263 267 272 278 277 276 285 285 281 280 282 288 295 294 265 262 276 278 294 321 332 327 301 232 235 248 273 126 102 139 129 105 353 354 354 358 358 359
249 252 248 253 257 255 265 271 268 275 278 279 277 286 290 276 279 284 294 294 274 259 234 258 278 312 320 310 282 278 267 273 243 154 138 84 82 350 357 348 353 355 352 354
250 257 253 254 254 257 260 272 271 276 277 272 273 275 262 278 281 291 297 287 275 250 238 261 288 311 316 310 288 267 254 247 221 190 123 82 47 357 349 344 343 339 344 349
251 248 254 257 254 249 252 253 266 270 269 272 279 274 249 290 283 294 292 278 266 232 227 242 265 287 302 272 257 241 243 259 241 181 163 319 326 331 337 336 331 335 338 337
244 250 242 249 249 250 244 243 258 268 271 277 274 274 275 280 274 291 289 265 249 243 237 240 249 257 259 247 241 232 222 237 233 188 190 266 311 318 332 336 332 330 330 336
245 251 256 244 251 239 250 248 253 273 280 281 279 282 291 288 277 287 282 271 258 248 239 237 244 252 246 243 231 217 196 198 193 177 196 246 289 297 307 315 319 325 326 329
254 254 253 246 246 249 248 251 255 260 268 273 279 280 279 285 283 284 278 268 250 249 239 235 244 247 248 236 235 209 189 193 183 196 232 266 281 287 296 305 304 310 312 319
245 252 254 245 237 236 244 245 254 264 262 268 278 281 284 279 282 282 279 263 241 233 226 226 244 250 239 232 224 204 203 204 199 206 233 268 266 290 299 301 306 310 308 310
234 253 252 246 246 242 241 242 239 256 263 265 272 274 290 289 280 282 281 274 258 236 230 232 243 242 234 225 222 214 222 221 217 226 250 259 276 294 305 311 309 317 316 317
229 243 250 255 254 251 241 245 250 256 266 261 265 273 270 289 294 289 286 275 251 241 235 241 246 238 233 230 227 226 228 230 238 246 251 277 285 290 300 309 313 318 321 324
233 241 243 245 248 250 251 244 244 247 257 262 254 271 278 282 286 291 286 262 243 235 233 244 251 242 236 234 230 234 240 249 236 244 265 277 285 292 303 314 323 328 330 332
235 240 243 249 254 256 253 250 245 244 243 252 259 266 274 279 280 283 274 254 240 235 240 243 247 241 238 237 233 229 233 238 241 240 252 271 292 303 315 321 325 329 330 333
240 246 246 250 252 253 258 258 250 244 249 251 265 272 270 267 281 278 263 252 241 239 241 242 236 237 240 239 242 239 231 234 248 263 272 283 291 302 316 322 324 328 328 331
240 243 250 250 250 256 255 247 256 256 248 248 251 260 269 268 270 267 265 249 243 245 247 249 250 252 252 256 255 253 250 255 264 276 289 296 303 310 320 329 329 326 324 334
249 243 245 254 253 250 258 259 250 255 258 256 259 267 259 263 261 262 263 267 262 252 249 246 258 264 266 271 271 268 255 257 261 285 296 305 315 324 329 330 333 327 325 327
250 252 249 247 246 264 257 254 242 245 252 259 259 262 263 260 262 266 268 264 252 257 260 267 272 272 266 269 257 241 235 248 268 288 299 312 324 324 317 313 318 317 323 326
246 249 247 254 253 251 263 253 249 253 260 251 254 254 252 251 251 264 264 260 264 271 271 275 278 274 268 222 185 200 235 259 277 280 291 306 309 312 307 310 319 322 323 324
239 242 245 245 255 261 261 257 238 243 267 248 242 246 248 243 255 256 254 259 268 272 274 280 284 253 195 157 170 233 250 264 283 297 303 306 311 312 314 321 325 326 327 331
245 241 245 245 249 255 255 245 240 255 277 263 244 247 248 247 232 216 239 253 263 273 283 292 122 126 127 157 179 251 280 294 302 308 309 312 317 321 325 326 328 329 330 330
247 243 242 245 251 263 258 255 255 261 262 269 256 254 224 235 238 233 242 252 262 274 288 326 92 91 335 316 299 293 303 307 314 318 319 323 329 330 328 328 329 327 328 328
247 249 249 253 253 256 261 267 262 270 264 266 251 225 234 243 238 235 240 252 268 276 283 300 316 316 319 326 322 315 315 318 317 318 325 329 326 327 331 333 333 330 328 327
251 243 250 252 261 247 249 250 253 261 259 256 249 240 231 222 238 239 247 260 274 279 280 250 286 306 317 325 331 329 324 321 321 324 326 325 328 328 332 333 333 330 328 326
246 247 245 252 247 251 243 239 243 253 257 251 240 245 248 247 244 250 261 269 278 281 266 284 321 334 334 340 338 332 321 315 321 323 323 325 328 330 334 335 335 338 335 332